Overview Statistics Trail Chart Weather Telemetry Raw packets
 

This is the latest recevied weather packets stored in our database for station/object WASS. If no packets are shown the sender has not sent any weather packets the latest 10 day(s).

<< 10 11 12 13 14 >>
Time Temp. Humidity Pressure Rain* Wind** Luminosity Snow
1787507741 22.22° C 99% 1012 hPa 0 mm - - -
1787505770 22.22° C 99% 1013 hPa 0 mm - - -
1787503797 22.22° C 99% 1013 hPa 0 mm - - -
1787501827 22.78° C 99% 1013 hPa 0 mm - - -
1787499843 22.22° C 99% 1014 hPa 0 mm - - -
1787497846 22.22° C 99% 1014 hPa 0 mm - - -
1787490895 23.89° C 99% 1013 hPa 0 mm - - -
1787486620 23.89° C 94% 1012 hPa 0 mm - - -
1787484561 23.89° C 94% 1012 hPa 0 mm - - -
1787482545 26.11° C 84% 1011 hPa 0 mm - - -
1787480556 27.22° C 74% 1010 hPa 0 mm - - -
1787478421 27.78° C 70% 1010 hPa 0 mm - - -
1787476433 28.89° C 66% 1010 hPa 0 mm - - -
1787469603 31.11° C 59% 1009 hPa 0 mm - - -
1787467498 31.11° C 62% 1009 hPa 0 mm - - -
1787465521 30° C 66% 1010 hPa 0 mm - - -
1787463544 31.11° C 62% 1010 hPa 0 mm - - -
1787459151 31.11° C 62% 1011 hPa 0 mm - - -
1787454796 30° C 66% 1012 hPa 0 mm - - -
1787450225 28.89° C 70% 1013 hPa 0 mm - - -
1787446133 26.11° C 84% 1013 hPa 0 mm - - -
1787441918 22.78° C 99% 1013 hPa 0 mm - - -
1787439944 22.22° C 99% 1013 hPa 0 mm - - -
1787437974 22.22° C 99% 1012 hPa 0 mm - - -
1787436004 22.22° C 99% 1012 hPa 0 mm - - -

* Rain latest hour (hover to see other rain measurements)
** Current wind speed in m/s (hover to see current wind gust speed)